星链-1312 (STARLINK-1312 )

导读 | 星芒AI

STARLINK-1312 是 SpaceX 星链计划中的一颗低轨通信卫星,属于第 13 批部署的星链卫星群。该卫星于 2022 年发射,旨在为全球用户提供高速互联网服务。它运行在约 550 公里的近地轨道,采用先进通信技术,支持宽带数据传输。作为星链系统的一部分,STARLINK-1312 有助于扩大网络覆盖范围,特别是在偏远和网络基础设施薄弱的地区。该卫星设计寿命约 5 至 7 年,任务结束后将按计划再入大气层销毁。

基本信息
目录编号:
45398
目录名称:
STARLINK-1312
国际标识:
2020-019AQ
轨道中心:
EARTH
卫星名称:
星链-1312
卫星全名:
星链-1312 (STARLINK-1312 )
卫星状态:
已陨落 最后检测时间 2025-11-10
发射日期:
2020-03-18 UTC
国别 :
美国 (US)
星等 :
--
轨道信息
数据来源 国际轨道数据
星历时间: 2025-11-10T15:54:56+0800
轨道信息已过期35天
半长轴: 6557.445km
偏心率: 0.0004156
轨道倾角: 53.028°
近地点辐角 208.964°
升交点赤经 264.271°
平近点角 151.118°
近地点: 176.584km
远地点: 182.036km
周期: 88.077分钟
每日圈数: 16.349361
详细信息
固有亮度:
5
最大亮度:
2.5
卫星平台:
Starlink V1.0
覆盖范围:
全球
运营商:
太空探索技术公司
运营商所在国:
美国
制造商(研发单位):
太空探索技术公司
制造商所在国:
美国
使用方式:
暂无
卫星简介
星链(Starlink)计划是由太空探索技术公司(SpaceX)提出的一个巨型低轨卫星互联网星座项目,计划在2019年至2024年间在太空搭建由约1.2万颗卫星组成的“星链”网络,其中1584颗将部署在地球上空550千米处的近地轨道,并从2020年开始工作。该卫星仍在工作。